Other Public Products
Issued by NWS Grand Forks, ND

Home | Current Version | Previous Version | Graphics & Text | Print | Product List | Glossary On
Versions: 1 2 3 4 5 6 7 8 9 10 11 12 13 14 15 16 17 18 19 20 21 22 23 24 25 26 27 28 29 30 31 32 33 34 35 36 37 38 39 40 41 42 43 44 45 46 47 48 49 50
531
FPUS83 KFGF 281131
OPUFGF
PRAIRIE TO PINES WEATHER ROUNDUP
NATIONAL WEATHER SERVICE EASTERN NORTH DAKOTA/GRAND FORKS ND
600 AM CDT WED SEP 28 2016

 **SATELLITE DATA USED TO AUGMENT SKY COVER AT AUTOMATED STATIONS**
 *****  WEATHER ACROSS EASTERN NORTH DAKOTA  *****

CITY           SKY/WX    TMP DP  RH WIND       PRES   REMARKS
GRAND FORKS    CLOUDY    40  38  93 N5        30.17R
GRAND FORKS AF CLOUDY    37  37  97 NW2       30.17R
GRAND CITY NWS   N/A     41 N/A N/A N3          N/A
BUXTON           N/A     52  51  99 N5          N/A
DEVILS LAKE    CLOUDY    47  43  86 NE3       30.19R
FARGO          CLOUDY    41  38  89 N6        30.17R
WAHPETON ARPT  CLOUDY    43  37  81 N8        30.16R
$$

 *****  WEATHER ACROSS CENTRAL AND WESTERN NORTH DAKOTA  *****

CITY           SKY/WX    TMP DP  RH WIND       PRES   REMARKS
JAMESTOWN      CLOUDY    41  39  93 CALM      30.16R
BISMARCK       CLOUDY    38  35  89 E7        30.18R
MINOT          CLEAR     41  37  86 SE6       30.16R
MINOT AFB      CLEAR     38  35  89 SE8       30.16R
GARRISON         N/A     43  39  86 E6        30.16R
WILLISTON      CLEAR     49  46  90 E6        30.15R
DICKINSON      CLEAR     46  41  82 S7        30.12R
HETTINGER      CLEAR     46  41  82 CALM      30.15R
$$

 *****  OTHER OBSERVATIONS NORTHEAST NORTH DAKOTA  *****

CITY           SKY/WX    TMP DP  RH WIND       PRES   REMARKS
WALHALLA       FAIR      39  39 100 CALM      30.20R
LANGDON        FAIR      37  37 100 CALM      30.20R FOG
CAVALIER       FAIR      39  39 100 CALM      30.20R
GRAFTON        FAIR      41  41 100 N5        30.21R
CANDO          FOG       32  32 100 N3        30.22R VSB 1/4
FORT TOTTEN      N/A     46  46 100 SE2       29.95S
ROLLA          FOG       37  37 100 SW6       30.21R VSB 1/2
RUGBY          FOG       32  32 100 CALM      30.20R VSB 1/4
 ***** THE ABOVE OBSERVATIONS ARE NON NWS ARE NOT QUALITY
        CONTROLLED AND MAY MIS-REPORT RAIN FOR SNOW...
$$

 *****  OTHER OBSERVATIONS SOUTHEAST NORTH DAKOTA *****

CITY           SKY/WX    TMP DP  RH WIND       PRES   REMARKS
COOPERSTOWN    FAIR      43  43 100 CALM      30.19R
VALLEY CITY    FAIR      41  41 100 N5        30.19R
OAKES          NOT AVBL
GWINNER        FAIR      41  39  93 N6        30.17R
SHEYENNE NWR     N/A     40  38  93 N3        29.95S
BUFFALO          N/A     39  37  93 N5          N/A
WYNDMERE         N/A     39  37  93 NW3         N/A
 ***** THE ABOVE OBSERVATIONS ARE NON NWS ARE NOT QUALITY
       CONTROLLED AND MAY MIS-REPORT RAIN FOR SNOW...
$$

  *****  WEATHER ACROSS NORTHERN MINNESOTA  *****

CITY           SKY/WX    TMP DP  RH WIND       PRES   REMARKS
FLAG ISLAND    CLOUDY    48  46  93 NW6       30.16R
WARROAD        CLOUDY    46  45  93 N8        30.17R
ROSEAU         CLOUDY    46  43  87 CALM      30.18R
HALLOCK        CLOUDY    39  37  93 CALM      30.19R
THF RVR FALLS    N/A     45  43  93 N3        30.18R
HALSTAD          N/A     39  37  93 NE5         N/A
FOSSTON        CLOUDY    43  43 100 N5        30.17R
BAUDETTE       CLEAR     47  45  93 NE6       30.15R
WASKISH        CLOUDY    46  45  93 NE3       30.15R
CROOKSTON      CLOUDY    43  41  93 NE5       30.19R
$$
  *****  WEATHER ACROSS CENTRAL AND WEST MINNESOTA  *****

CITY           SKY/WX    TMP DP  RH WIND       PRES   REMARKS
BEMIDJI        CLEAR     45  45  98 N7        30.14R
PARK RAPIDS    MOCLDY    47  43  86 N7        30.12R
WADENA         CLOUDY    46  45  93 N5        30.11R
DETROIT LAKES  CLOUDY    46  45  93 NE8       30.16R
MOORHEAD       CLOUDY    43  39  87 N7        30.17R
FERGUS FALLS   CLOUDY    46  46 100 NE5       30.17R
ELBOW LAKE     CLOUDY    47  45  91 NE8       30.14R
MORRIS MN      CLOUDY    46  45  93 NW5       30.13R
STAPLES        CLOUDY    46  46 100 NW5       30.11R
WHEATON        CLOUDY    43  39  87 N5        30.16R
$$
  *****  WEATHER ELSEWHERE ACROSS MINNESOTA  *****

CITY           SKY/WX    TMP DP  RH WIND       PRES   REMARKS
DULUTH         PTCLDY    50  47  89 N10       30.03R
INTRNTL FALLS  MOCLDY    50  47  89 NE5       30.13R
ELY            CLOUDY    48  46  93 CALM      30.08R
CLOQUET        MOCLDY    46  45  93 N7        30.06R
BRAINERD       MOCLDY    48  46  93 N6        30.09R
HIBBING        PTCLDY    48  46  93 N10       30.10R
ALEXANDRIA     CLOUDY    46  45  96 NE9       30.12R
SAINT CLOUD    CLEAR     48  47  96 N7        30.06R
MINNEAPOLIS    CLOUDY    51  46  83 NW9       30.02R
$$

  *****  WEATHER ACROSS SOUTH DAKOTA  *****

CITY           SKY/WX    TMP DP  RH WIND       PRES   REMARKS
SIOUX FALLS    PTCLDY    47  43  86 N8        30.09R
BROOKINGS      CLOUDY    45  43  93 NE8       30.11R
WATERTOWN      CLEAR     40  38  93 N8        30.12R
HURON          CLOUDY    36  36 100 NW3       30.14R
SISSETON         N/A     40  38  93 NW7       30.14R
ABERDEEN       CLOUDY    40  37  89 N5        30.16R
MITCHELL       CLOUDY    40  37  89 NW6       30.13R
PIERRE         CLOUDY    39  35  86 E3        30.15R
MOBRIDGE       CLOUDY    43  38  82 SE7       30.15R
RAPID CITY     CLEAR     54  40  59 W9        30.16R
$$

  *****  SOME WEATHER IN NEARBY STATES *****

CITY           SKY/WX    TMP DP  RH WIND       PRES   REMARKS
GLASGOW MT     CLEAR     52  44  74 NW8       30.21R
GREAT FALLS MT CLEAR     39  35  86 W6        30.32S
CHEYENNE WY    CLOUDY    47  31  53 NW7       30.31R
SCOTTSBLUFF NE CLEAR     48  39  71 NW10      30.22R
OMAHA NE       PTCLDY    47  42  83 N10       30.02R
DES MOINES IA  PTCLDY    52  43  71 N13       29.97R
DAVENPORT IA   PTCLDY    48  44  86 N10       29.89R
CHICAGO IL     LGT RAIN  51  46  83 N10       29.80R
EAU CLAIRE WI  CLOUDY    51  49  92 N9        29.93R
LA CROSSE WI   CLOUDY    53  49  86 NW12      29.91R
$$

  *****  SOME NATIONAL WEATHER *****

CITY           SKY/WX    TMP DP  RH WIND       PRES   REMARKS
LA GUARDIA NY  PTCLDY    64  60  87 NE8       30.04R
RALEIGH NC     CLOUDY    70  68  93 SE5       29.94R
ATLANTA GA     PTCLDY    68  66  93 NW7       29.94R
NEW ORLEANS LA MOCLDY    79  67  66 NE6       29.95R
OKLAHOMA CITY  CLEAR     57  49  74 SW5       29.99F
ALBUQUERQUE NM CLOUDY    58  43  57 CALM      30.25S
SALT LAKE CITY CLEAR     56  47  71 E3        30.15R
LOS ANGELES CA MOCLDY    73  60  63 E5        29.88F
BOISE ID       CLEAR     62  40  44 SE8       30.02R
SEATTLE WA     MOCLDY    54  46  74 NE7       30.12S
$$

*** WEATHER ACROSS MANITOBA...SASKATCHEWAN AND ONTARIO ***
                ***ONTARIO***

CITY           SKY/WX    TMP DP  RH WIND       PRES   REMARKS
GERALDTON      CLOUDY    52  50  93 NE6       30.09R
THUNDER BAY    PTCLDY    50  48  93 NE5       30.04R
SIOUX LOOKOUT  MOCLDY    48  46  93 CALM      30.16R
TORONTO        MOCLDY    61  54  77 E3        29.94R
BIG TROUT LK   CLOUDY    50  50 100 CALM      30.15S
PICKLE LAKE    DRIZZLE   46  46 100 VRB2      30.17
DRYDEN         CLEAR     48  46  93 NE5       30.16R
KENORA         CLOUDY    48  48 100 NE6       30.19R
$$
                *** MANITOBA***

CITY           SKY/WX    TMP DP  RH WIND       PRES   REMARKS
BRANDON        FOG       34  34 100 N3        30.21R VSB 3/8
DAUPHIN        CLEAR     37  37 100 W7        30.19R
ISLAND LAKE    CLOUDY    46  45  93 W9        30.18R
PILOT MOUND      N/A     36  34  93 W2          N/A
THE PAS        PTCLDY    52  46  82 NW6       30.18R
THOMPSON       MOCLDY    45  41  87 SW9       30.12R
WINNIPEG       CLEAR     37  36  93 NE3       30.20R
LYNN LAKE      CLEAR     43  41  93 W7        30.10R
CHURCHILL      MOCLDY    45  43  93 SW12      29.95S
GILLAM         DRIZZLE   45  43  93 SW10      30.09R
$$
                ***SASKATCHEWAN***

CITY           SKY/WX    TMP DP  RH WIND       PRES   REMARKS
ESTEVAN        PTCLDY    41  39  93 VRB2      30.15R
KINDERSLEY     PTCLDY    41  34  75 NE5       30.33R
LLOYDMINSTER   PTCLDY    32  28  86 W9        30.32R WCI  24
PRINCE ALBERT  CLEAR     36  36 100 W3        30.28R
REGINA         CLEAR     48  45  87 N17G23    30.20R
YORKTON        CLEAR     41  37  87 S2        30.18R   C1F1C2F2C3F3C4F4C5F5C6F6C7F7C8F8C9F9CaFaCbFbCcFcCdFdCe!



USA.gov is the U.S. government's official web portal to all federal, state and local government web resources and services.